Change the Weather History Date:

Thursday, April 10, 2014

  Actual Average Record
Temperature  
Mean Temperature 41 °F 47 °F  
Max Temperature 53 °F 56 °F 77 °F (1991)
Min Temperature 29 °F 39 °F 27 °F (1997)
Degree Days  
Heating Degree Days 24 18  
Month to date heating degree days 187 192  
Since 1 July heating degree days 5037 4884  
Cooling Degree Days 0 0  
Month to date cooling degree days 0 0  
Year to date cooling degree days 0 0  
Moisture  
Dew Point 27 °F    
Average Humidity 50    
Maximum Humidity 69    
Minimum Humidity 30    
Precipitation  
Precipitation 0.00 in 0.15 in 0.77 in (1998)
Month to date precipitation 1.10 1.51  
Year to date precipitation 15.34 12.85  
Snow  
Snow 0.00 in 0.00 in - ()
Month to date snowfall 0.0 0.3  
Since 1 July snowfall 63.5 24.5  
Snow Depth 0.00 in    
Sea Level Pressure  
Sea Level Pressure 30.12 in    
Wind  
Wind Speed 10 mph (SSW)    
Max Wind Speed 22 mph    
Max Gust Speed 32 mph    
Visibility 10 miles    
Events      
T = Trace of Precipitation, MM = Missing Value Source: NWS Daily Summary

Daily Weather History Graph

Daily Weather History Graph

Search for Another Location

Airport or City:

Trip Planner

Search our weather history database for the weather conditions in past years. The results will help you decide how hot, cold, wet, or windy it might be!

Date:

Astronomy

Apr. 10, 2014 Rise Set
Actual Time 6:21 AM EDT 7:26 PM EDT
Civil Twilight 5:53 AM EDT 7:54 PM EDT
Nautical Twilight 5:19 AM EDT 8:28 PM EDT
Astronomical Twilight 4:44 AM EDT 9:03 PM EDT
Moon 3:06 PM EDT (4/10) 3:44 AM EDT (4/10)
Length of Visible Light 14h 01m
Length of Day
13h 05m
Waxing Gibbous, 79% of the Moon is Illuminated
Apr 10
Waxing Gibbous
Apr 15
Full
Apr 22
Last Quarter
Apr 29
New
May 6
First Quarter

Hourly Weather History & Observations

Time (EDT) Temp. Windchill Dew Point Humidity Pressure Visibility Wind Dir Wind Speed Gust Speed Precip Events Conditions
12:56 AM 42.1 °F 39.2 °F 15.1 °F 34% 30.04 in 10.0 mi North 4.6 mph - N/A   Clear
1:56 AM 39.9 °F 36.7 °F 18.0 °F 41% 30.06 in 10.0 mi NW 4.6 mph - N/A   Clear
2:56 AM 35.1 °F - 21.9 °F 59% 30.07 in 10.0 mi Calm Calm - N/A   Clear
3:56 AM 32.0 °F - 19.9 °F 61% 30.08 in 10.0 mi Calm Calm - N/A   Clear
4:56 AM 33.1 °F 30.0 °F 21.0 °F 61% 30.10 in 10.0 mi WSW 3.5 mph - N/A   Clear
5:56 AM 30.0 °F - 21.0 °F 69% 30.12 in 10.0 mi Calm Calm - N/A   Partly Cloudy
6:56 AM 33.1 °F - 23.0 °F 66% 30.16 in 10.0 mi Calm Calm - N/A   Clear
8:56 AM 46.9 °F - 24.1 °F 41% 30.20 in 10.0 mi SSW 8.1 mph - N/A   Clear
9:56 AM 48.9 °F - 21.0 °F 33% 30.22 in 10.0 mi South 12.7 mph - N/A   Clear
10:56 AM 51.1 °F - 21.9 °F 32% 30.23 in 10.0 mi South 12.7 mph - N/A   Partly Cloudy
11:56 AM 52.0 °F - 23.0 °F 32% 30.22 in 10.0 mi SSW 13.8 mph 21.9 mph N/A   Partly Cloudy
12:56 PM 52.0 °F - 27.0 °F 38% 30.20 in 10.0 mi South 16.1 mph - N/A   Partly Cloudy
1:56 PM 52.0 °F - 26.1 °F 37% 30.19 in 10.0 mi SSW 12.7 mph 20.7 mph N/A   Partly Cloudy
2:56 PM 52.0 °F - 21.9 °F 31% 30.16 in 10.0 mi SSW 16.1 mph - N/A   Partly Cloudy
3:56 PM 52.0 °F - 32.0 °F 47% 30.14 in 10.0 mi SSW 19.6 mph 24.2 mph N/A   Partly Cloudy
4:56 PM 52.0 °F - 34.0 °F 50% 30.11 in 10.0 mi SSW 15.0 mph 23.0 mph N/A   Partly Cloudy
5:56 PM 51.1 °F - 36.0 °F 56% 30.09 in 10.0 mi South 16.1 mph 25.3 mph N/A   Partly Cloudy
6:56 PM 50.0 °F - 37.9 °F 63% 30.09 in 10.0 mi South 13.8 mph 20.7 mph N/A   Scattered Clouds
7:56 PM 48.9 °F - 37.9 °F 66% 30.09 in 10.0 mi SSW 15.0 mph 25.3 mph N/A   Scattered Clouds
8:56 PM 50.0 °F - 37.9 °F 63% 30.09 in 10.0 mi SSW 17.3 mph 24.2 mph N/A   Mostly Cloudy
9:56 PM 48.9 °F - 37.9 °F 66% 30.09 in 10.0 mi South 10.4 mph - N/A   Mostly Cloudy
10:56 PM 50.0 °F - 37.0 °F 61% 30.07 in 10.0 mi SSW 13.8 mph 21.9 mph N/A   Mostly Cloudy
11:56 PM 51.1 °F - 35.1 °F 54% 30.04 in 10.0 mi SSW 12.7 mph 24.2 mph N/A   Mostly Cloudy